EHI
0 0 0 0 0 0 0 0 0 0 0 0 0 0 0 0 0 0 0 0 0 0 0 0 0 0 0 0 0 0 0 0 0 0 0 0 0 0 0 0 0 0 0
0 0 0 0 0 0 0 0 0 0 0 0 0 0 0 0 0 0 0 0 0 0 0 0 0 0 0 0 0 0 0 0 0 0 0 0 0 0 0 0 0 0 0
0 0 0 0 0 0 0 0 0 0 0 0 0 0 0 0 0 0 0 0 0 0 0 0 0 0 0 0 0 0 0 0 0 0 0 0 0 0 0 0 0 0 0
0 0 0 0 0 0 0 0 0 0 0 0 0 0 0 0 0 0 0 0 0 0 0 0 0 0 0 0 0 0 0 0 0 0 0 0 0 0 0 0 0 0 0
0 0 0 0 0 0 0 0 0 0 0 0 0 0 0 0 0 0 0 0 0 0 0 0 0 0 0 0 0 0 0 0 0 0 0 0 0 0 0 0 0 0 0
0 0 0 0 0 0 0 0 0 0 0 0 0 0 0 0 0 0 0 0 0 0 0 0 0 0 0 0 0 0 0 0 0 0 0 0 0 0 0 0 0 0 0
0 0 0 0 0 0 0 0 0 0 0 0 0 0 0 0 0 0 0 0 0 0 0 0 0 0 0 0 0 0 0 0 0 0 0 0 0 0 0 0 0 0 0
0 0 0 0 0 0 0 0 0 0 0 0 0 0 0 0 0 0 0 0 0 0 0 0 0 0 0 0 0 0 0 0 0 0 0 0 0 0 0 0 0 0 0
0 0 0 0 0 0 0 0 0 0 0 0 0 0 0 0 0 0 0 0 0 0 0 0 0 0 0 0 0 0 0 0 0 0 0 0 0 0 0 0 0 0 0
0 0 0 0 0 0 0 0 0 0 0 0 0 0 0 0 0 0 0 0 0 0 0 0 0 0 0 0 0 0 0 0 0 0 0 0 0 0 0 0 0 0 0
0 0 0 0 0 0 0 0 0 0 0 0 0 0 0 0 0 0 0 0 0 0 0 0 0 0 0 0 0 0 0 0 0 0 0 0 0 0 0 0 0 0 0
0 0 0 0 0 0 0 0 0 0 0 0 0 0 0 0 0 0 0 0 0 0 0 0 0 0 0 0 0 0 0 0 0 0 0 0 0 0 0 0 0 0 0
0 0 0 0 0 0 0 0 0 0 0 0 0 0 0 0 0 0 0 0 0 0 0 0 0 0 0 0 0 0 0 0 0 0 0 0 0 0 0 0 0 0 0
0 0 0 0 0 0 0 0 0 0 0 0 0 0 0 0 0 0 0 0 0 0 0 0 0 0 0 0 0 0 0 0 0 0 0 0 0 0 0 0 0 0 0
0 0 0 0 0 0 0 0 0 0 0 0 0 0 0 0 0 0 0 0 0 0 0 0 0 0 0 0 0 0 0 0 0 0 0 0 0 0 0 0 0 0 0
0 0 0 0 0 0 0 0 0 0 0 0 0 0 0 0 0 0 0 0 0 0 0 0 0 0 0 0 0 0 0 0 0 0 0 0 0 0 0 0 0 0 0
0 0 0 0 0 0 0 0 0 0 0 0 0 0 0 0 0 0 0 0 0 0 0 0 0 0 0 0 0 0 0 0 0 0 0 0 0 0 0 0 0 0 0
0 0 0 0 0 0 0 0 0 0 0 0 0 0 0 0 0 0 0 0 0 0 0 0 0 0 0 0 0 0 0 0 0 0 0 0 0 0 0 0 0 0 0
0 0 0 0 0 0 0 0 0 0 0 0 0 0 0 0 0 0 0 0 0 0 0 0 0 0 0 0 0 0 0 0 0 0 0 0 0 0 0 0 0 0 0
0 0 0 0 0 0 0 0 0 0 0 0 0 0 0 0 0 0 0 0 0 0 0 0 0 0 0 0 0 0 0 0 0 0 0 0 0 0 0 0 0 0 0
0 0 0 0 0 0 0 0 0 0 0 0 0 0 0 0 0 0 0 0 0 0 0 0 0 0 0 0 0 0 0 0 0 0 0 0 0 0 0 0 0 0 0
0 0 0 0 0 0 0 0 0 0 0 0 0 0 0 0 0 0 0 0 0 0 0 0 0 0 0 0 0 0 0 0 0 0 0 0 0 0 0 0 0 0 0
0 0 0 0 0 0 0 0 0 0 0 0 0 0 0 0 0 0 0 0 0 0 0 0 0 0 0 0 0 0 0 0 0 0 0 0 0 0 0 0 0 0 0
0 0 0 0 0 0 0 0 0 0 0 0 0 0 0 0 0 0 0 0 0 0 0 0 0 0 0 0 0 0 0 0 0 0 0 0 0 0 0 0 0 0 0
0 0 0 0 0 0 0 0 0 0 0 0 0 0 0 0 0 0 0 0 0 0 0 0 0 0 0 0 0 0 0 0 0 0 0 0 0 0 0 0 0 0 0
0 0 0 0 0 0 0 0 0 0 0 0 0 0 0 0 0 0 0 0 0 0 0 0 0 0 0 0 0 0 0 0 0 0 0 0 0 0 0 0 0 0 0
Wind_Speed
4 4 5 4 4 3 4 4 4 3 3 2 2 2 1 1 1 1 1 1 1 1 1 1 1 1 1 1 1 1 1 1 1 1 1 2 1 0 0 0 0 0 0
2 2 3 4 5 5 4 4 4 3 3 2 2 1 1 1 1 1 1 1 1 1 1 1 1 0 1 1 1 1 1 0 1 1 1 1 2 2 1 1 0 1 1
6 4 4 4 4 5 5 4 4 3 3 3 2 2 1 1 0 0 1 1 1 1 1 1 1 1 1 2 2 1 2 1 1 0 2 2 2 2 2 2 1 1 1
5 5 4 4 5 5 4 4 4 3 3 4 3 4 3 2 2 1 1 1 1 1 2 2 2 1 1 2 2 2 2 2 2 1 1 1 2 2 2 3 2 2 2
4 5 5 5 4 4 4 4 4 3 3 3 4 4 3 2 1 1 1 1 1 2 2 2 2 2 2 2 2 2 2 2 2 2 1 1 1 1 2 3 3 3 2
3 3 2 2 2 2 2 3 4 3 4 4 4 4 4 4 3 2 3 2 1 2 2 2 2 2 2 2 2 2 2 2 2 2 2 2 2 2 2 3 3 3 3
2 2 2 2 2 2 3 3 4 3 3 4 4 4 4 5 5 4 4 3 2 2 3 2 2 2 3 3 2 3 2 3 3 3 3 2 2 2 2 2 2 3 3
1 2 2 2 2 3 3 3 4 3 3 4 4 3 3 3 3 4 3 4 3 3 3 3 3 3 3 3 3 3 3 3 4 4 4 3 3 2 2 2 2 2 3
2 1 1 1 2 2 3 3 3 3 3 3 3 3 3 3 3 3 3 3 3 2 3 3 4 3 3 3 3 3 4 4 4 4 4 4 3 2 3 2 3 3 3
2 1 1 1 1 1 1 1 2 3 3 2 3 2 3 4 3 3 4 4 3 3 3 3 4 4 4 4 3 3 3 4 4 4 4 4 3 3 3 3 3 3 4
2 2 1 1 1 1 0 0 1 1 1 2 2 2 3 3 3 3 4 4 3 3 4 4 4 4 4 4 4 4 4 5 4 4 5 5 5 4 3 3 3 4 3
2 2 2 2 2 1 1 1 1 1 2 1 1 2 2 2 3 3 4 3 3 3 4 4 4 4 4 4 5 5 5 5 5 5 5 5 4 5 4 4 5 4 4
3 3 2 2 2 2 2 2 2 2 2 1 1 2 2 2 3 3 3 3 3 3 3 3 4 4 4 4 4 4 5 5 5 5 6 6 5 6 4 4 5 4 5
3 2 2 2 2 2 2 2 2 2 2 1 1 2 2 3 3 3 3 3 2 3 3 3 3 4 4 4 4 4 4 5 5 5 5 6 6 7 6 5 5 5 5
4 3 3 3 3 2 2 2 3 3 2 1 2 3 3 2 2 2 2 2 2 3 3 3 3 3 3 4 4 4 5 5 5 5 5 6 7 8 7 6 5 5 5
5 4 4 3 3 3 3 2 3 3 2 2 2 3 2 2 2 2 2 1 2 2 1 2 3 4 4 6 7 6 4 4 5 5 5 6 7 8 10 10 9 8 7
5 5 4 4 4 3 3 2 2 2 2 2 3 3 2 2 2 1 1 1 1 1 1 2 2 4 5 8 8 8 5 4 5 5 4 4 5 7 5 7 9 9 10
5 5 4 4 3 2 2 2 1 1 2 2 2 2 2 2 2 2 1 1 1 1 2 2 2 3 5 8 8 8 4 3 4 5 5 5 5 6 6 5 5 6 7
5 5 4 3 2 1 1 1 1 1 2 2 2 2 2 2 2 2 2 2 1 2 2 2 2 3 5 7 8 7 2 3 4 4 5 5 6 9 9 6 6 6 6
4 4 3 2 1 2 1 1 1 1 2 3 3 2 2 2 2 2 2 2 2 2 2 3 3 3 4 6 7 7 2 3 4 4 5 8 8 9 9 6 6 7 6
5 4 3 2 2 2 1 1 1 2 3 3 3 2 2 2 2 2 2 2 2 2 2 3 3 3 4 6 7 8 3 3 4 4 4 4 9 10 10 8 6 7 6
5 4 3 3 2 1 1 1 3 3 3 2 2 3 2 2 2 2 2 2 1 2 2 3 3 3 4 6 7 9 8 6 4 4 4 5 9 9 9 7 7 9 8
5 4 3 3 3 2 1 2 3 2 2 2 2 3 3 2 2 2 2 2 1 1 2 2 3 3 3 4 8 9 9 8 5 4 7 7 8 8 6 8 9 7 4
4 3 3 2 3 3 2 2 2 2 1 2 2 2 2 2 2 2 2 2 2 2 2 3 3 3 3 4 4 4 4 6 5 4 5 7 7 6 6 5 5 4 4
4 3 3 3 4 3 2 2 2 1 1 2 2 2 2 2 2 2 2 3 3 3 3 3 3 3 4 5 8 6 4 3 3 2 2 2 2 2 3 3 3 3 3
4 4 4 3 3 3 3 2 2 1 1 2 2 2 2 2 2 2 3 4 4 6 7 6 6 5 6 9 9 8 7 7 6 3 2 2 2 3 3 3 3 3 3
Wind_Direction
224 190 184 180 169 169 170 168 164 160 149 156 159 167 185 185 169 155 152 153 132 126 124 112 83 113 148 153 132 79 67 38 22 47 1 341 333 347 305 295 37 333 292
218 197 183 178 180 183 185 183 181 176 175 178 177 181 171 202 197 184 181 184 151 154 156 134 148 152 150 138 136 96 114 52 49 114 93 346 334 331 309 283 236 276 319
199 198 194 195 190 190 191 193 193 186 180 158 131 113 86 52 74 224 213 230 188 176 168 176 169 191 182 186 188 178 166 186 263 147 147 155 229 299 303 282 262 267 281
197 195 193 197 204 207 198 191 183 181 179 162 158 165 176 194 218 213 228 235 201 191 180 179 184 195 203 201 208 199 208 185 202 245 253 192 171 184 292 300 287 280 273
199 199 200 203 208 205 197 191 175 176 177 176 175 183 191 197 193 193 205 223 230 213 200 189 191 201 211 215 220 217 222 209 205 204 216 241 265 196 190 261 288 300 269
209 201 198 191 204 197 191 186 176 183 182 182 180 187 198 191 188 202 211 221 233 233 221 210 204 207 212 217 221 224 226 225 223 220 210 195 200 207 204 229 253 272 278
201 195 190 196 207 201 195 192 186 192 190 189 195 198 205 196 198 203 209 214 221 232 227 226 222 219 223 225 222 225 235 225 221 223 227 226 232 223 214 222 247 268 285
217 209 214 209 212 211 203 197 198 201 198 198 207 210 207 209 214 213 213 219 225 229 225 220 224 225 225 228 226 230 234 228 224 230 229 230 237 233 220 213 212 261 280
257 235 230 219 220 215 212 208 206 212 212 210 208 212 212 218 226 219 214 220 231 233 221 219 222 225 226 225 225 232 233 228 230 232 231 235 237 238 235 226 209 205 243
315 323 319 282 253 233 230 217 212 222 223 213 213 229 229 225 223 218 219 221 227 224 218 222 221 225 227 225 226 242 237 230 235 233 231 238 242 245 241 232 228 222 226
309 314 312 314 343 16 17 317 257 247 244 235 231 232 240 238 230 231 228 224 223 218 218 224 224 228 231 229 228 236 237 238 242 241 236 238 235 236 241 237 231 231 229
320 326 333 1 7 2 349 326 308 284 273 262 254 248 246 239 234 244 242 227 225 226 225 226 229 233 238 234 231 234 235 235 239 243 243 244 240 235 235 233 233 235 235
329 335 343 341 333 332 328 320 315 305 309 301 282 275 263 242 235 241 244 233 227 230 229 226 234 238 238 234 233 236 239 240 241 241 241 246 242 243 238 237 237 236 245
307 314 315 311 312 313 311 313 316 320 320 314 295 277 268 257 248 244 239 234 228 229 230 233 237 243 246 243 241 239 241 245 247 246 245 246 242 243 240 242 242 238 242
305 299 294 295 302 306 308 311 314 323 322 321 305 282 278 276 264 250 243 237 237 241 237 236 248 251 247 244 247 242 240 244 248 250 249 251 254 254 250 247 242 237 239
293 295 294 291 289 286 291 300 308 313 318 313 303 306 309 303 283 263 245 239 243 252 259 259 257 259 256 262 260 254 242 245 247 252 252 253 258 262 264 262 258 250 240
291 287 285 275 274 272 273 275 289 307 319 319 315 316 315 309 304 304 315 279 266 271 273 269 268 269 265 262 262 261 253 243 246 250 254 260 262 266 259 266 270 268 265
301 290 283 283 282 277 283 284 304 313 315 311 314 320 325 325 325 330 321 304 285 262 261 267 267 275 277 272 268 269 261 251 251 248 248 254 262 260 261 257 260 261 265
295 291 284 278 282 282 278 285 311 318 315 306 307 314 318 316 321 317 308 302 290 285 276 276 272 272 280 278 274 274 260 255 261 258 252 253 255 262 265 258 259 264 268
312 311 311 315 301 287 266 267 291 304 298 298 300 306 302 296 295 294 298 297 290 283 288 290 284 275 276 278 280 277 265 261 265 264 258 258 261 265 263 255 253 259 262
318 321 323 318 293 283 258 265 278 277 287 304 316 316 309 299 288 288 292 292 293 298 294 293 292 286 283 282 279 276 267 253 260 263 262 262 267 269 269 265 256 261 269
323 325 324 316 311 297 250 263 273 284 301 315 318 313 311 305 305 302 298 293 285 291 292 293 297 292 288 286 283 279 274 269 258 260 259 262 271 274 277 274 271 273 274
316 317 309 308 313 306 264 258 280 293 300 306 303 303 313 315 303 287 288 296 283 273 281 283 285 292 292 290 290 286 283 280 270 261 264 267 270 274 274 274 277 276 265
311 315 311 306 309 309 297 268 280 291 285 286 295 302 309 309 310 301 287 279 271 269 274 278 281 289 293 290 289 287 289 285 279 276 274 275 275 272 268 269 274 268 261
309 309 300 292 297 306 302 301 296 282 291 295 299 302 300 296 300 301 289 280 259 257 267 267 269 278 284 286 296 299 288 278 270 282 281 279 273 269 267 263 261 261 263
304 307 305 302 299 303 303 304 297 269 265 288 298 297 296 295 297 298 307 305 301 301 298 295 292 286 292 305 308 308 305 301 294 287 270 269 268 264 263 264 266 258 257